sat.trackr.live / text

‹ back to catalog

GONETS-M 7

NORAD 39251 · 2013-048C

PAYLOAD ACTIVE UNKNOWN

§ Identity

Operator
Country
CIS
Launch date
2013-09-11
Launch site
PLMSC
Launch vehicle
Mass (kg)
RCS (m²)
1.65

External: N2YO · Heavens-Above · Gunter

§ Orbital elements

Epoch: 2026-05-25T03:16:50.580192Z

Period
115.86 min
Inclination
82.4913°
Eccentricity
0.0016414
Mean motion
12.42913430 rev/d
Perigee alt
1,481.4 km
Apogee alt
1,507.2 km
Semi-major
7,872.4 km
B*
-1.1339e-3
RAAN
0.6651°
Arg perigee
265.3560°
Mean anomaly
94.5645°
Rev number
57,597

§ Raw data

GONETS-M 71 39251U 13048C   26145.13669653 -.00000147  00000+0 -11339-2 0  99952 39251  82.4913   0.6651 0016414 265.3560  94.5645 12.42913430575975

JSON: /api/v1/satellites/39251 · /tle

For live sub-satellite position, see the globe view (requires WebGL).

§ Visibility from observer

Set your observer location to see the next 7 days of passes ≥ 10°. The values pass through the URL so the page stays shareable.

No JS? Fill the form by hand. The geolocation button needs JavaScript.

§ Radio — SatNOGS DB

ModeDescriptionDownlinkUplink
FM UHF Unknown 387.450 MHz
FM UHF Unknown 388.675 MHz
FM UHF Unknown 388.775 MHz

3 transmitters · refreshed weekly from db.satnogs.org